AAL18A KPHX-KLAX

Flight info

Callsign AAL18A
Flight time N/A
Altitude 32000
Route KPHX KEENS3 WLVRN DCT ESTWD HLYWD1 KLAX
Aircraft B77W/H-L/FMC

Departure

Time 2026-05-05 14:33
Airport Phoenix Sky Harbor International Airport (KPHX)

Arrival

Time N/A
Airport Los Angeles International Airport (KLAX)
Time Latitude Longitude Altitude Speed Heading
2026-05-05 14:22 33.43725 -111.99346 1143 ft 0 kts 271°
2026-05-05 14:29 33.43725 -111.99342 1140 ft 2 kts 271°
2026-05-05 14:29 33.43725 -111.99304 1137 ft 5 kts 271°
2026-05-05 14:30 33.43724 -111.99265 1135 ft 6 kts 258°
2026-05-05 14:30 33.43751 -111.99232 1135 ft 6 kts 180°
2026-05-05 14:30 33.43754 -111.99232 1135 ft 0 kts 180°
2026-05-05 14:31 33.43749 -111.99232 1135 ft 5 kts 180°
2026-05-05 14:31 33.43647 -111.99231 1138 ft 22 kts 180°
2026-05-05 14:31 33.43495 -111.99231 1138 ft 22 kts 180°
2026-05-05 14:32 33.43344 -111.99230 1141 ft 22 kts 182°
2026-05-05 14:32 33.43202 -111.99274 1139 ft 22 kts 222°
2026-05-05 14:32 33.43113 -111.99368 1144 ft 11 kts 222°
2026-05-05 14:32 33.43103 -111.99457 1143 ft 15 kts 271°
2026-05-05 14:33 33.43104 -111.99944 1143 ft 111 kts 269°
2026-05-05 14:33 33.43109 -112.01274 1155 ft 207 kts 268°
2026-05-05 14:33 33.43105 -112.03176 2095 ft 237 kts 267°
2026-05-05 14:33 33.43066 -112.05092 3714 ft 234 kts 267°
2026-05-05 14:34 33.42918 -112.07035 4653 ft 235 kts 255°
2026-05-05 14:34 33.42392 -112.08961 5254 ft 250 kts 248°
2026-05-05 14:34 33.41771 -112.10890 6098 ft 256 kts 246°
2026-05-05 14:34 33.41128 -112.12915 6933 ft 262 kts 247°
2026-05-05 14:35 33.40491 -112.14974 7776 ft 266 kts 247°